Погода в Дашогузе

Погода в Дашогузе : погода сейчас, прогноз погоды и архив. Всё, что Вы хотите узнать о погоде в Дашогузе!

Поиск расширенной информации на нашем сайте:

Другие новости

Новости СМИ2

Главная страница сайта

Новости сайта

03.07.2017

Напоминаем, что на нашем специализированном сайте Метеоцентр.Азия вы можете получить высокодетализированные автоматические прогнозы погоды по пунктам России, СНГ и мира в авиационном формате (включающие направление и скорость ветра, видимость, явления погоды, количество и форму облачности, нижнюю и верхнюю границу облачности).


Погода в Дашогузе - сегодня

Время (UTC), дата Ветер
(°,м/с) 
Видим.   Явления Облачность Т
(°С)
Тd
(°С)
f(%) Тe
(°С)
Pmin
(гПа)
dP
(гПа)
Po
(мм)
O2
(г/м3)
Тmin Tmax R s Состояние
почвы
21 16.10.18 160 (Ю) 10 км    3/0 верхняя 
[Ci fib]
+1.1 -3.1 74 +2  1033.2  0.5  767  308           
00 17.10.18 110 (В) 10 км    ясно 
+0.4 -3.6 74 1033.5  0.2  767  309           
03 17.10.18 120 (ЮВ) 10 км    8/0 средняя, верхняя 
[Ac trans|Ci sp]
+0.4 -3.9 73 1034.4  0.9  768  309           
06 17.10.18 140 (ЮВ) 10 км    6/0 средняя, верхняя 
[Ac trans|Ci fib]
+7.6 -2.7 48 +6  1034.5  0.4  768  301  -0.5         
09 17.10.18 160 (Ю) 10 км    3/0 средняя 
[Ac trans]
+10.5 -5 33 +11  1032.7  -1.7  767  298           
12 17.10.18 140 (ЮВ) 10 км    ясно 
+10.9 -6 30 +11  1031  -1.7  766  297           
15 17.10.18 120 (ЮВ) 10 км    ясно 
+6.7 -4.6 44 +7  1030.2  -0.9  765  301    +11.5       
18 17.10.18 120 (ЮВ) 10 км    ясно 
+4.2 -3.3 58 +3  1029.7  -0.6  764  304    +11.5       
21 17.10.18 120 (ЮВ) 10 км    ясно 
+2.5 -3.4 65 +1  1028.1  -1.7  763  305           
00 18.10.18 140 (ЮВ) 10 км    ясно 
+1.5 -2.6 74 +1  1026.8  -1.3  762  306           
03 18.10.18 140 (ЮВ) 10 км    4/0 средняя 
[Ac trans]
+0.8 -4.2 69 1026.6  -0.2  762  307           
06 18.10.18 250 (З) 10 км    4/0 верхняя 
[Ci]
+9.6 -4.1 38 +9  1026.3  762  297  +0.4         
09 18.10.18 270 (З) 10 км    4/0 верхняя 
[Ci]
+14 -5.7 25 +15  1024.6  -1.5  761  292           
12 18.10.18 310 (СЗ) 10 км    3/0 верхняя 
[Ci]
+15 -3.6 27 +15  1023.5  -1  760  291           
15 18.10.18 270 (З) 10 км    8/0 верхняя 
[Ci]
+9.8 -5.7 33 +10  1023.6  -0.1  760  296    +15.8       
18 18.10.18 230 (ЮЗ) 10 км    8/0 верхняя 
[Ci]
+6.2 -2.7 53 +5  1024.1  0.3  760  300    +15.8       
21 18.10.18 220 (ЮЗ) 10 км    8/0 верхняя 
[Ci]
+4.2 -3.3 58 +3  1024.5  0.3  761  302           
00 19.10.18 240 (ЮЗ) 10 км    4/0 верхняя 
[Ci]
+3.3 -5 54 +3  1024.2  -0.3  760  303    -0.3       
03 19.10.18 230 (ЮЗ) 10 км    10/6 1500 м средняя 
[Sc|Ac trans]
+3.9 -5.7 50 +3  1025.2  761  303  +2.7         
06 19.10.18 260 (З) 10 км    9/0 средняя 
[Ac und]
+11 -3 37 +11  1026.4  1.5  762  296  +2.7         
09 19.10.18 300 (СЗ) 10 км    4/0 средняя 
[Ac trans]
+17.5 -1.2 28 +18  1025.4  -0.8  762  289           
12 19.10.18 330 (СЗ) 10 км    3/0 средняя 
[Ac trans]
+17.8 -0.2 30 +18  1024.8  -0.6  761  288           
15 19.10.18 050 (СВ) 10 км    3/0 средняя 
[Ac trans]
+13.2 +1.3 44 +13  1025.8  0.9  762  293    +19       
18 19.10.18 100 (В) 10 км    3/0 средняя 
[Ac trans]
+8.8 +2.7 66 +8  1026.3  0.3  762  297    +19       
21 19.10.18 100 (В) 10 км    3/0 средняя 
[Ac trans]
+7.4 +2.1 69 +7  1025.9  -0.5  762  298           
Время (UTC), дата Ветер
(°,м/с) 
Видим.   Явления Облачность Т
(°С)
Тd
(°С)
f(%) Тe
(°С)
Pmin
(гПа)
dP
(гПа)
Po
(мм)
O2
(г/м3)
Тmin Tmax R s Состояние
почвы

Для получения пояснительной информации подведите курсор к названию столбца.

ПОГОДА в Дашогузе - архив

Всё, что Вы хотите узнать о погоде в Дашогузе - удобно и подробно!

Выберите нужную дату (начиная с 1 января 2015* года) и нажмите кнопку "Найти".
Будут отображены архивные сводки погоды по пункту Дашогуз, начиная с указанной даты.


Отображать данные в формате CSV (для использования в таблицах Excel)


Внимание! Наш архив погоды предназначен исключительно для личного некоммерческого использования в познавательных целях. Если Вам необходимы официальные справки о состоянии погоды (для производственных, юридических, коммерческих и т.п. целей), обращайтесь в органы Росгидромета.

*Примечание: данная дата относится к архиву по метеостанциям СССР (Россия, СНГ, Балтия).
Архив по метеостанциям Зарубежной Европы и Азии (кроме Китая) хранится 10 дней, по другим регионам земного шара (Китай, Африка, Америка, Австралия, Океания) - 1 день.

Дашогуз - район местоположения метеостанции


Название, широта, долгота, высота метеостанции:
Дашогуз (Ташауз) 41.8°ш. 59.8°д. 82 м над ур. моря [Туркменистан]

Дополнительная информация

В oтличие oт бoльшинства пoгoдных сайтoв мы публикуем пoдрoбную метеoинфoрмацию в детальнoм прoфессиoнальнoм фoрмате.

Характеристики температуры и влажнoсти вoздуха измеряются на высoте 2 м в тени вдали oт зданий и деревьев.
Скoрoсть ветра измеряется на высoте 10 м (на урoвне рoста челoвека скoрoсть ветра ниже в 1.5-2 раза). Если метеoстанция нахoдится в гoрoде или в лесу, тo скoрoсть ветра занижена на 2-4 м/с пo сравнению с oткрытым местoм. Скoрoсть ветра над акватoриями крупных рек и oзёр, а также на вершинах хoлмoв на 2-5 м/с выше, чем в oбычных услoвиях.
Атмoсфернoе давление в разных тoчках местнoсти мoжет значительнo oтличаться oт давления на метеoстанции, в зависимoсти oт услoвий рельефа (при пoдъёме на 10 м давление пoнижается примернo на 1 мм рт.ст.).